Middletown, PA

8:22 AM EDT on August 19, 2017 (GMT -0400)
Harrisburg International

Weather History for KMDT - November, 2012

Change the Weather History Date:

Saturday, November 10, 2012

  Actual Average Record
Temperature  
Mean Temperature 45 °F 46 °F  
Max Temperature 56 °F 56 °F 73 °F (1888)
Min Temperature 33 °F 37 °F 24 °F (2003)
Degree Days  
Heating Degree Days 20 19  
Month to date heating degree days 222 172  
Since 1 July heating degree days 566 584  
Cooling Degree Days 0 0  
Month to date cooling degree days 0 0  
Year to date cooling degree days 1226 1002  
Moisture  
Dew Point 37 °F    
Average Humidity 76    
Maximum Humidity 96    
Minimum Humidity 55    
Precipitation  
Precipitation T in 0.10 in 1.70 in (1990)
Month to date precipitation T 1.02  
Year to date precipitation 40.38 35.30  
Snow  
Snow 0.00 in 0.00 in 4.30 in (1987)
Month to date snowfall 0.0 0.1  
Since 1 July snowfall 0.0 0.1  
Since 1 September snowfall 0.0 0.1  
Snow Depth 0.00 in    
Sea Level Pressure  
Sea Level Pressure 30.32 in    
Wind  
Wind Speed 1 mph (NW)    
Max Wind Speed 6 mph    
Max Gust Speed 8 mph    
Visibility 6 miles    
Events Rain    
T = Trace of Precipitation, MM = Missing Value Source: NWS Daily Summary

Daily Weather History Graph

Daily Weather History Graph

Search for Another Location

Airport or City:

Trip Planner

Search our weather history database for the weather conditions in past years. The results will help you decide how hot, cold, wet, or windy it might be!

Date:

Astronomy

Nov. 10, 2012 Rise Set
Actual Time 6:47 AM EST 4:54 PM EST
Civil Twilight 6:18 AM EST 5:22 PM EST
Nautical Twilight 5:45 AM EST 5:55 PM EST
Astronomical Twilight 5:14 AM EST 6:27 PM EST
Moon 2:49 AM EST (11/10) 2:40 PM EST (11/10)
Length of Visible Light 11h 04m
Length of Day
10h 06m
Waning Crescent, 14% of the Moon is Illuminated
Nov 10
Waning Crescent
Nov 13
New
Nov 20
First Quarter
Nov 28
Full
Dec 6
Last Quarter

Hourly Weather History & Observations

Time (EST) Temp. Windchill Dew Point Humidity Pressure Visibility Wind Dir Wind Speed Gust Speed Precip Events Conditions
12:56 AM 35.1 °F - 32.0 °F 89% 30.23 in 10.0 mi Calm Calm - N/A   Clear
1:56 AM 34.0 °F - 32.0 °F 92% 30.25 in 8.0 mi Calm Calm - N/A   Clear
2:56 AM 35.1 °F 32.2 °F 33.1 °F 92% 30.26 in 7.0 mi NNW 3.5 mph - N/A   Clear
3:56 AM 33.1 °F - 30.9 °F 92% 30.27 in 7.0 mi Calm Calm - N/A   Partly Cloudy
4:56 AM 34.0 °F - 32.0 °F 92% 30.29 in 7.0 mi Calm Calm - N/A   Mostly Cloudy
5:56 AM 36.0 °F - 33.1 °F 89% 30.30 in 7.0 mi Calm Calm - N/A   Overcast
6:56 AM 36.0 °F - 34.0 °F 93% 30.32 in 6.0 mi Calm Calm - N/A   Mostly Cloudy
7:56 AM 37.9 °F - 36.0 °F 93% 30.33 in 6.0 mi Calm Calm - 0.00 in Rain Light Rain
8:56 AM 39.9 °F 37.8 °F 37.0 °F 89% 30.35 in 6.0 mi WNW 3.5 mph - 0.00 in Rain Light Rain
9:56 AM 42.1 °F 39.2 °F 37.0 °F 82% 30.36 in 5.0 mi NW 4.6 mph - 0.00 in   Haze
10:56 AM 45.0 °F - 37.9 °F 76% 30.35 in 6.0 mi Calm Calm - N/A   Haze
11:56 AM 46.9 °F - 39.0 °F 74% 30.32 in 6.0 mi Calm Calm - N/A   Haze
12:56 PM 48.0 °F - 39.0 °F 71% 30.31 in 4.0 mi Calm Calm - N/A   Haze
1:56 PM 51.1 °F - 39.9 °F 66% 30.30 in 5.0 mi Calm Calm - N/A   Haze
2:56 PM 55.9 °F - 39.0 °F 53% 30.28 in 7.0 mi Calm Calm - N/A   Mostly Cloudy
3:56 PM 54.0 °F - 41.0 °F 62% 30.29 in 6.0 mi Calm Calm - N/A   Haze
4:56 PM 48.9 °F - 39.9 °F 71% 30.30 in 6.0 mi SSE 3.5 mph - N/A   Haze
5:56 PM 44.1 °F - 39.0 °F 82% 30.32 in 6.0 mi Calm Calm - N/A   Haze
6:56 PM 46.0 °F - 39.0 °F 76% 30.34 in 5.0 mi Calm Calm - N/A   Haze
7:56 PM 42.1 °F - 37.9 °F 85% 30.36 in 5.0 mi Calm Calm - N/A   Partly Cloudy
8:56 PM 39.9 °F - 37.0 °F 89% 30.38 in 5.0 mi Calm Calm - N/A   Partly Cloudy
9:56 PM 42.1 °F - 37.9 °F 85% 30.38 in 5.0 mi Calm Calm - N/A   Scattered Clouds
10:56 PM 41.0 °F - 37.0 °F 86% 30.38 in 5.0 mi Calm Calm - N/A   Mostly Cloudy
11:56 PM 39.0 °F - 36.0 °F 89% 30.38 in 4.0 mi Calm Calm - N/A   Partly Cloudy